Date String (YYYY-MM-DD hh:mm:ss) UTC,Instrument flags,Ambient pressure (hPa),Sample flow (lpm),Bypass flow (lpm),Sample temperature (°C),Ambient temperature (°C),ASC tube jacket temperature (°C),LED temperature (°C),Box temperature (°C),Sample RH (%),Span deviation,Mass concentration (μg/m³),Mass concentration (μg/m³),Mass concentration (μg/m³)
DateTimeUTC,F1_M11,P_M11,Q1_M11,Q2_M11,T1_M11,T2_M11,T3_M11,T4_M11,T5_M11,U1_M11,ZSPAN_M11,X0_M11,X2_M11,X1_M11
2022-10-11 06:00:00,,0822.4,4.99,0.00,30.0,28.5,00.0,38.8,31.8,10.3,0000.0,0005.73,0003.27,0002.79
2022-10-11 06:01:00,,0822.3,5.00,0.00,30.0,28.5,00.0,38.8,31.8,10.4,0000.0,0006.06,0003.32,0002.82
2022-10-11 06:02:00,,0822.4,5.00,0.00,30.0,28.5,00.0,38.8,31.8,10.4,0000.0,0006.07,0003.35,0002.85
2022-10-11 06:03:00,,0822.4,5.00,0.00,30.0,28.5,00.0,38.8,31.7,10.3,0000.0,0005.20,0003.36,0002.88
2022-10-11 06:04:00,,0822.3,4.99,0.00,30.0,28.5,00.0,38.8,31.8,10.3,0000.0,0005.21,0003.36,0002.89
2022-10-11 06:05:00,,0822.3,5.00,0.00,30.0,28.5,00.0,38.8,31.8,10.3,0000.0,0005.47,0003.40,0002.91
2022-10-11 06:06:00,,0822.3,5.00,0.00,30.0,28.5,00.0,38.8,31.8,10.3,0000.0,0005.72,0003.44,0002.93
2022-10-11 06:07:00,,0822.3,5.00,0.00,30.0,28.5,00.0,38.8,31.8,10.3,0000.0,0005.88,0003.45,0002.95
2022-10-11 06:08:00,,0822.3,4.99,0.00,30.0,28.5,00.0,38.8,31.8,10.4,0000.0,0005.89,0003.44,0002.97
2022-10-11 06:09:00,,0822.3,5.00,0.00,30.0,28.5,00.0,38.8,31.8,10.4,0000.0,0005.88,0003.45,0002.98
2022-10-11 06:10:00,,0822.3,5.01,0.00,30.0,28.6,00.0,38.8,31.8,10.3,0000.0,0006.04,0003.48,0002.98
2022-10-11 06:11:00,,0822.3,4.99,0.00,30.0,28.6,00.0,38.8,31.8,10.4,0000.0,0006.12,0003.48,0002.98
2022-10-11 06:12:00,,0822.3,4.99,0.00,30.0,28.6,00.0,38.8,31.8,10.5,0000.0,0006.10,0003.47,0002.98
2022-10-11 06:13:00,,0822.3,5.00,0.00,30.0,28.6,00.0,38.8,31.8,10.4,0000.0,0005.94,0003.46,0002.96
2022-10-11 06:14:00,,0822.3,5.00,0.00,30.0,28.6,00.0,38.8,31.8,10.4,0000.0,0005.95,0003.46,0002.97
2022-10-11 06:15:00,,0822.3,5.00,0.00,30.0,28.6,00.0,38.8,31.9,10.4,0000.0,0006.40,0003.51,0002.97
2022-10-11 06:16:00,,0822.3,4.98,0.00,30.0,28.6,00.0,38.8,31.9,10.3,0000.0,0006.31,0003.50,0002.98
2022-10-11 06:17:00,,0822.3,5.00,0.00,30.0,28.6,00.0,38.8,31.8,10.3,0000.0,0006.23,0003.49,0002.99
2022-10-11 06:18:00,,0822.2,5.01,0.00,30.0,28.6,00.0,38.8,31.8,10.1,0000.0,0007.28,0003.50,0003.00
2022-10-11 06:19:00,,0822.3,4.99,0.00,30.0,28.6,00.0,38.8,31.9,10.3,0000.0,0007.73,0003.54,0003.03
2022-10-11 06:20:00,,0822.3,5.00,0.00,30.0,28.6,00.0,38.8,31.9,10.2,0000.0,0007.75,0003.54,0003.06
2022-10-11 06:21:00,,0822.3,5.02,0.00,30.0,28.6,00.0,38.8,31.9,10.1,0000.0,0007.71,0003.54,0003.09
2022-10-11 06:22:00,,0822.3,5.00,0.00,30.0,28.6,00.0,38.8,31.8,10.3,0000.0,0007.66,0003.53,0003.11
2022-10-11 06:23:00,,0822.3,5.01,0.00,30.0,28.6,00.0,38.8,31.8,10.2,0000.0,0007.56,0003.52,0003.13
2022-10-11 06:24:00,,0822.2,4.99,0.00,30.0,28.6,00.0,38.8,31.9,10.2,0000.0,0007.57,0003.54,0003.15
2022-10-11 06:25:00,,0822.3,5.01,0.00,30.0,28.6,00.0,38.8,31.9,10.1,0000.0,0007.57,0003.56,0003.16
2022-10-11 06:26:00,,0822.3,4.99,0.00,30.0,28.6,00.0,38.8,31.9,10.2,0000.0,0007.36,0003.54,0003.17
2022-10-11 06:27:00,,0822.3,5.00,0.00,30.1,28.6,00.0,38.8,31.9,10.2,0000.0,0007.38,0003.56,0003.18
2022-10-11 06:28:00,,0822.3,5.00,0.00,30.1,28.6,00.0,38.8,31.9,10.2,0000.0,0007.35,0003.58,0003.19
2022-10-11 06:29:00,,0822.3,5.00,0.00,30.1,28.6,00.0,38.9,31.9,10.3,0000.0,0006.17,0003.59,0003.20
2022-10-11 06:30:00,,0822.3,5.00,0.00,30.1,28.6,00.0,38.9,31.9,10.3,0000.0,0005.62,0003.55,0003.19
2022-10-11 06:31:00,,0822.2,4.99,0.00,30.1,28.6,00.0,38.9,31.9,10.0,0000.0,0005.95,0003.59,0003.19
2022-10-11 06:32:00,,0822.2,5.00,0.00,30.1,28.6,00.0,38.9,31.9,10.1,0000.0,0005.91,0003.57,0003.17
2022-10-11 06:33:00,,0822.2,5.01,0.00,30.1,28.7,00.0,38.9,31.9,10.1,0000.0,0006.08,0003.55,0003.16
2022-10-11 06:34:00,,0822.2,4.99,0.00,30.1,28.7,00.0,38.9,31.9,10.2,0000.0,0006.98,0003.56,0003.16
2022-10-11 06:35:00,,0822.3,5.00,0.00,30.1,28.7,00.0,38.9,31.9,10.4,0000.0,0007.31,0003.58,0003.15
2022-10-11 06:36:00,,0822.2,5.01,0.00,30.1,28.7,00.0,38.9,31.9,10.6,0000.0,0007.37,0003.57,0003.14
2022-10-11 06:37:00,,0822.2,5.01,0.00,30.1,28.7,00.0,38.9,31.9,10.6,0000.0,0007.32,0003.55,0003.14
2022-10-11 06:38:00,,0822.2,4.99,0.00,30.1,28.7,00.0,38.9,31.9,10.6,0000.0,0007.24,0003.52,0003.13
2022-10-11 06:39:00,,0822.2,5.01,0.00,30.1,28.7,00.0,38.9,32.0,10.5,0000.0,0007.32,0003.50,0003.12
2022-10-11 06:40:00,,0822.2,5.00,0.00,30.1,28.7,00.0,38.9,32.0,10.6,0000.0,0007.07,0003.48,0003.11
2022-10-11 06:41:00,,0822.2,5.00,0.00,30.1,28.7,00.0,38.9,32.0,10.6,0000.0,0007.04,0003.49,0003.10
2022-10-11 06:42:00,,0822.2,4.99,0.00,30.1,28.7,00.0,38.9,32.0,10.9,0000.0,0006.75,0003.45,0003.10
2022-10-11 06:43:00,,0822.2,5.00,0.00,30.1,28.7,00.0,38.9,32.0,11.1,0000.0,0006.77,0003.48,0003.09
2022-10-11 06:44:00,,0822.2,5.01,0.00,30.1,28.7,00.0,38.9,32.0,11.2,0000.0,0006.80,0003.51,0003.09
2022-10-11 06:45:00,,0822.2,4.98,0.00,30.1,28.7,00.0,38.9,32.0,11.3,0000.0,0006.00,0003.52,0003.08
2022-10-11 06:46:00,,0822.2,5.00,0.00,30.1,28.7,00.0,38.9,32.0,11.3,0000.0,0005.72,0003.49,0003.06
2022-10-11 06:47:00,,0822.2,5.01,0.00,30.1,28.7,00.0,38.9,32.0,11.4,0000.0,0005.71,0003.48,0003.06
2022-10-11 06:48:00,,0822.2,5.00,0.00,30.1,28.7,00.0,38.9,32.0,11.4,0000.0,0005.77,0003.50,0003.06
2022-10-11 06:49:00,,0822.1,4.99,0.00,30.1,28.7,00.0,38.9,32.0,11.3,0000.0,0005.76,0003.51,0003.07
2022-10-11 06:50:00,,0822.2,5.00,0.00,30.1,28.7,00.0,38.9,32.0,11.2,0000.0,0005.62,0003.49,0003.06
2022-10-11 06:51:00,,0822.2,5.01,0.00,30.1,28.7,00.0,38.9,32.0,11.4,0000.0,0005.67,0003.50,0003.06
2022-10-11 06:52:00,,0822.2,4.99,0.00,30.1,28.7,00.0,38.9,31.9,11.5,0000.0,0005.84,0003.49,0003.07
2022-10-11 06:53:00,,0822.2,5.00,0.00,30.1,28.7,00.0,38.9,31.9,11.6,0000.0,0006.74,0003.52,0003.07
2022-10-11 06:54:00,,0822.2,5.01,0.00,30.1,28.7,00.0,38.9,32.0,11.7,0000.0,0006.96,0003.50,0003.09
2022-10-11 06:55:00,,0822.2,5.00,0.00,30.2,28.7,00.0,38.9,32.0,11.7,0000.0,0006.79,0003.50,0003.09
2022-10-11 06:56:00,,0822.1,4.99,0.00,30.1,28.7,00.0,38.9,31.9,11.8,0000.0,0006.57,0003.45,0003.08
2022-10-11 06:57:00,,0822.2,5.01,0.00,30.1,28.7,00.0,38.9,31.9,11.9,0000.0,0006.51,0003.45,0003.09
2022-10-11 06:58:00,,0822.1,5.01,0.00,30.1,28.7,00.0,38.9,32.0,11.8,0000.0,0007.02,0003.45,0003.09
2022-10-11 06:59:00,,0822.1,4.99,0.00,30.1,28.7,00.0,38.9,32.0,11.8,0000.0,0007.08,0003.46,0003.08
